Meteo Giornale » Osservazioni meteo Stati Uniti (USA) » Whidbey Island

ore: 18:53 - Osservazioni Meteo Whidbey Island
Lat. 48° 20' N Lon. 122° 39' W Alt. 14 metri s.l.m.

molto_nuvoloso

16 °C

Molto Nuvoloso

Temp. 24 Ore

10 °C

18 °C

Ovest/Sud-Ovest

11.1 Km/h

Dew point 11 °C

Umidità 72 %

Visibilità  10 Km

Il sole sorge alle ore 06:27

Il sole tramonta alle ore 19:54

Data e Ora Cielo e Fenomeni T °C DP °C Um. % Pres. hPa Vis. km Vento km/h
Oggi h: 18:53 molto_nuvoloso Molto Nuvoloso 16 11 72 1009 10 O/SO 11.1
Oggi h: 17:53 nuvoloso Nuvoloso 17 11 67 1009 10 O/SO 14.8
Oggi h: 16:53 nuvoloso Nuvoloso 18 12 67 1009 10 O/SO 13
Oggi h: 15:53 nuvoloso Nuvoloso 18 12 67 1010 10 O/SO 14.8
Oggi h: 14:53 molto_nuvoloso Molto Nuvoloso 17 12 72 1011 10 O/SO 14.8
Oggi h: 13:53 molto_nuvoloso Molto Nuvoloso 17 12 72 1011 10 O/SO 18.5
Oggi h: 12:53 molto_nuvoloso Molto Nuvoloso 16 11 72 1012 10 O 14.8
Oggi h: 11:53 molto_nuvoloso Molto Nuvoloso 15 11 76 1013 10 O 13
Oggi h: 10:53 molto_nuvoloso Molto Nuvoloso 14 11 82 1014 10 O/NO 9.3
Oggi h: 09:53 nebbia Banco di nebbia 13 11 87 1014 10 O 11.1
Oggi h: 08:53 nebbia Banco di nebbia 12 12 100 1014 11 O/SO 9.3
Oggi h: 07:36 nebbia Nebbia 11 10 93 1014 2 N 0
Oggi h: 06:53 nebbia Nebbia 10 9 93 1014 2 N 0
Oggi h: 05:53 nebbia Nebbia 11 11 100 1015 0 N 0
Oggi h: 04:53 nebbia Nebbia 11 11 100 1015 2 N 5.5
Oggi h: 04:43 nebbia Nebbia 11 11 100 1015 2 O/SO 7.4
Oggi h: 04:15 foschia Foschia 10 10 100 1015 3 N 5.5
Oggi h: 03:53 foschia Foschia 10 9 93 1015 5 N 0
Oggi h: 02:53 foschia Foschia 10 10 100 1016 8 N 0
Oggi h: 01:53 poco_nuvoloso Poco Nuvoloso 11 11 100 1016 10 N 0
Oggi h: 00:53 poco_nuvoloso Poco Nuvoloso 12 11 93 1017 10 N 0
Ieri h: 23:53 poco_nuvoloso Poco Nuvoloso 13 11 87 1017 10 SO 7.4
Ieri h: 22:53 poco_nuvoloso Poco Nuvoloso 13 11 87 1018 10 N 0
Ieri h: 21:53 nuvoloso Nuvoloso 13 11 87 1018 10 N 0
Ieri h: 20:53 coperto Coperto 14 11 82 1018 10 N 0